This is the latest recevied weather packets stored in our database for station/object W8RSN-13. If no packets are shown the sender has not sent any weather packets the latest 10 day(s).
| Time | Temp. | Humidity | Pressure | Rain* | Wind** | Luminosity | Snow |
|---|---|---|---|---|---|---|---|
| 1788002966 | 24.44° C | 60% | 1014.2 hPa | - | - | - | - |
| 1788002665 | 24.44° C | 58% | 1014.3 hPa | - | - | - | - |
| 1788002364 | 24.44° C | 58% | 1014.4 hPa | - | - | - | - |
| 1788002063 | 24.44° C | 55% | 1014.4 hPa | - | - | - | - |
| 1788001762 | 24.44° C | 56% | 1014.3 hPa | - | - | - | - |
| 1788001461 | 23.89° C | 58% | 1014.1 hPa | - | - | - | - |
| 1788001161 | 23.89° C | 59% | 1014.1 hPa | - | - | - | - |
| 1788000860 | 23.89° C | 58% | 1014 hPa | - | - | - | - |
| 1788000559 | 23.89° C | 58% | 1014.2 hPa | - | - | - | - |
| 1788000258 | 24.44° C | 57% | 1014.2 hPa | - | - | - | - |
| 1787999957 | 24.44° C | 58% | 1014.1 hPa | - | - | - | - |
| 1787999656 | 24.44° C | 56% | 1014 hPa | - | - | - | - |
| 1787999375 | 25° C | 56% | 1014.4 hPa | - | - | - | - |
| 1787999074 | 25° C | 56% | 1014 hPa | - | - | - | - |
| 1787998773 | 25° C | 56% | 1014.1 hPa | - | - | - | - |
| 1787998472 | 25° C | 56% | 1014 hPa | - | - | - | - |
| 1787998172 | 24.44° C | 56% | 1013.9 hPa | - | - | - | - |
| 1787997871 | 24.44° C | 57% | 1013.8 hPa | - | - | - | - |
| 1787997570 | 24.44° C | 57% | 1014 hPa | - | - | - | - |
| 1787997269 | 24.44° C | 56% | 1013.8 hPa | - | - | - | - |
| 1787996968 | 25° C | 55% | 1013.8 hPa | - | - | - | - |
| 1787996667 | 25° C | 56% | 1013.7 hPa | - | - | - | - |
| 1787996367 | 25° C | 56% | 1013.8 hPa | - | - | - | - |
| 1787996065 | 25° C | 56% | 1013.7 hPa | - | - | - | - |
| 1787995765 | 25° C | 55% | 1013.6 hPa | - | - | - | - |
* Rain since midnight (hover to see other rain measurements)
** Current wind speed in m/s (hover to see current wind gust speed)